Flag for Finland Weather past 2 weeks in Helsinki, Finland

Now
41 °F

Passing clouds.


Feels Like: 41 °F
Forecast: 49 / 57 °F
Wind: No wind

Location: Helsinki Malmi Airport

Current Time: May 26, 2015 at 4:50:55 AM

Latest Report: May 26, 2015 at 4:20 AM


Visibility: 4 mi

Pressure: 29.89 "Hg

Humidity: 93%

Dew point: 39 °F

Location of HelsinkiLocation

Historic Weather in Helsinki — Graph

°F

Helsinki temperature yesterday

Maximum temperature yesterday: 59 °F (at 3:20 PM)
Minimum temperature yesterday: 43 °F (at 3:50 AM)
Average temperature yesterday: 50 °F

Past Weeks' High & Low Weather Summary

 TemperatureHumidityPressure
High61 °F (May 22, 2:50 PM)100% (May 11, 4:20 AM)30.18 "Hg (May 11, 4:20 AM)
Low30 °F (May 16, 3:20 AM)36% (May 19, 6:20 PM)29.30 "Hg (May 13, 7:50 PM)
Average49 °F73%29.80 "Hg
* Reported May 11 3:20 AM — May 26 3:20 AM, Helsinki, Weather by CustomWeather, © 2015

Note: Actual official high and low records may vary slightly from our data, if they occured in-between our weather recording intervals... More about our weather records

Advertising

Helsinki weather history for previous 24 hours

 ConditionsComfort  
Time TempWeatherWind HumidityBarometerVisibility
3:20 AM
Tue, May 26
43 °FClear.No wind93%29.89 "Hg10 mi
2:50 AM45 °FClear.No wind93%29.89 "Hg10 mi
2:20 AM43 °FClear.No wind93%29.89 "Hg10 mi
1:50 AM43 °FClear.1 mph93%29.89 "Hg10 mi
1:20 AM43 °FClear.No wind93%29.89 "Hg10 mi
12:50 AM43 °FClear.No wind93%29.89 "Hg10 mi
12:20 AM43 °FClear.No wind93%29.89 "Hg10 mi
11:50 PM
Mon, May 25
45 °FClear.No wind87%29.89 "Hg10 mi
11:20 PM45 °FClear.1 mph93%29.89 "Hg10 mi
10:50 PM46 °FSunny.1 mph87%29.89 "Hg10 mi
10:20 PM48 °FSunny.1 mph82%29.89 "Hg10 mi
9:50 PM50 °FSunny.3 mph76%29.89 "Hg10 mi
9:20 PM52 °FSunny.3 mph72%29.89 "Hg10 mi
8:50 PM52 °FPassing clouds.5 mph72%29.89 "HgN/A
8:20 PM54 °FPassing clouds.6 mph72%29.89 "HgN/A
7:50 PM55 °FSunny.7 mph67%29.89 "Hg10 mi
7:20 PM55 °FPassing clouds.8 mph67%29.89 "HgN/A
6:50 PM57 °FPassing clouds.7 mph67%29.89 "HgN/A
6:20 PM55 °FPassing clouds.9 mph67%29.92 "HgN/A
5:50 PM55 °FSunny.12 mph67%29.92 "Hg10 mi
5:20 PM57 °FSunny.10 mph63%29.92 "Hg10 mi
4:50 PM59 °FPassing clouds.9 mph55%29.92 "HgN/A
4:20 PM59 °FPassing clouds.8 mph51%29.92 "HgN/A
4:04 PM59 °FPassing clouds.8 mph55%29.92 "HgN/A
3:20 PM59 °FPassing clouds.9 mph51%29.92 "HgN/A
2:50 PM57 °FPassing clouds.9 mph59%29.92 "HgN/A
2:20 PM57 °FPassing clouds.9 mph59%29.92 "HgN/A
1:50 PM55 °FPassing clouds.9 mph63%29.92 "HgN/A
1:20 PM54 °FPassing clouds.10 mph67%29.92 "HgN/A
12:50 PM52 °FPassing clouds.10 mph72%29.92 "HgN/A
12:20 PM50 °FPassing clouds.12 mph76%29.95 "HgN/A
11:50 AM50 °FPassing clouds.10 mph76%29.95 "HgN/A
11:20 AM46 °FScattered clouds.10 mph87%29.95 "HgN/A
10:50 AM46 °FPartly sunny.10 mph87%29.95 "HgN/A
10:20 AM46 °FPartly sunny.10 mph82%29.95 "HgN/A
9:50 AM46 °FPartly sunny.8 mph87%29.92 "HgN/A
9:20 AM46 °FPartly sunny.8 mph87%29.92 "HgN/A
8:50 AM46 °FPartly sunny.7 mph87%29.92 "HgN/A
8:20 AM46 °FPartly sunny.8 mph87%29.92 "HgN/A
7:50 AM46 °FLow clouds.9 mph87%29.92 "HgN/A
7:20 AM46 °FLow clouds.5 mph87%29.92 "HgN/A
6:50 AM45 °FLow clouds.8 mph93%29.92 "HgN/A
6:20 AM46 °FPartly sunny.8 mph93%29.92 "HgN/A
5:50 AM46 °FBroken clouds.7 mph93%29.92 "HgN/A
5:20 AM43 °FSunny.No wind93%29.92 "Hg10 mi
4:50 AM43 °FClear.2 mph93%29.92 "Hg10 mi
4:20 AM43 °FClear.1 mph93%29.92 "Hg10 mi
Weather by CustomWeather, © 2015

See weather overviewHow to use our weather pages